Skip Page Navigation
NASA JPL Caltech
NASA Logo - Jet Propulsion Laboratory + View the NASA Portal
+ Center for Near-Earth Object Studies
JPL Home Earth Solar System Stars & Galaxies Technology
JPL Solar System Dynamics
BODIES ORBITS EPHEMERIDES TOOLS PHYSICAL DATA DISCOVERY FAQ SITE MAP
JPL Small-Body Database Browser
Search: [ help ]  
452881 (2006 TO48)
Classification: Main-belt Asteroid          SPK-ID: 2452881
Ephemeris | Orbit Diagram | Orbital Elements | Mission Design | Physical Parameters | Discovery Circumstances ]

[ show orbit diagram ]
Orbital Elements at Epoch 2459000.5 (2020-May-31.0) TDB
Reference: JPL 12 (heliocentric ecliptic J2000)
 Element Value Uncertainty (1-sigma)   Units 
e .1392101648010542 6.3655e-08  
a 2.679649260015981 2.9125e-08 au
q 2.306614844920133 1.6985e-07 au
i 5.245099812982234 9.1857e-06 deg
node 49.41802478188912 8.2446e-05 deg
peri 289.178835714938 9.4313e-05 deg
M 86.02369276208002 3.9644e-05 deg
tp 2458617.647985123836
(2019-May-14.14798512)
0.00017577 TDB
period 1602.194941068308
4.39
2.6121e-05
7.152e-08
d
yr
n .2246917592686692 3.6632e-09 deg/d
Q 3.052683675111828 3.3179e-08 au
  Orbit Determination Parameters
   # obs. used (total)      79  
   data-arc span      4781 days (13.09 yr)  
   first obs. used      2006-09-26  
   last obs. used      2019-10-29  
   planetary ephem.      DE431  
   SB-pert. ephem.      SB431-N16  
   condition code      0  
   norm. resid. RMS      .51891  
   source      ORB  
   producer      Otto Matic  
   solution date      2019-Nov-08 16:51:51  

Additional Information
 Earth MOID = 1.30446 au 
 Jupiter MOID = 2.33849 au 
 T_jup = 3.357 
[ show covariance matrix ]

Ephemeris | Orbit Diagram | Orbital Elements | Mission Design | Physical Parameters | Discovery Circumstances ]

Physical Parameter Table
Parameter Symbol Value Units Sigma Reference Notes
absolute magnitude H 17.4   n/a MPO450474  

452881 (2006 TO48)          Discovered 2006-Sep-26 by Mt. Lemmon Survey at Mount Lemmon
Reference: Last Updated: 2016-01-04

Alternate Designations
 2006 TO48 = 2014 OY74 
Ephemeris | Orbit Diagram | Orbital Elements | Mission Design | Physical Parameters | Discovery Circumstances ]
ABOUT SSD CREDITS/AWARDS PRIVACY/COPYRIGHT GLOSSARY LINKS
FirstGov 2020-Jul-12 23:10 UT
(server date/time)  
NASA Home Page
Site Manager:   Ryan S. Park
Webmaster  Alan B. Chamberlin